Location: Brodeslavy
(49.9527°N, 13.5567°E)
Time: 21:27:02
(UTC+00:00)

Cosmos 2228 Rocket - Pass Details

Date: 17 June 2025
Orbit: 612 x 647 km, 82.5° (Epoch: 16 July)

Event Time Altitude Azimuth Distance (km) Brightness Sun altitude
Exits shadow 22:18:25 17° 215° (SW) 1,582 4.7 -15.9°
Maximum altitude 22:21:36 49° 284° (WNW) 817 3.8 -16.0°
Drops below altitude 10° 22:25:54 10° 0° (N) 2,003 7.0 -16.1°
Sets 22:28:12 0° 6° (N) 2,909 8.0 -16.1°
